Flag for Lithuania Weather past 2 weeks in Kaunas, Lithuania

Now
57 °F

Passing clouds.


Feels Like: 56 °F
Forecast: 38 / 60 °F
Wind: 7 mph from South

Location: Kaunas

Current Time: Oct 2, 2014 at 5:57:40 PM

Latest Report: Oct 2, 2014 at 5:20 PM


Visibility: N/A

Pressure: 30.48 "Hg

Humidity: 39%

Dew point: 32 °F

Location of KaunasLocation

Historic Weather in Kaunas — Graph

°F

Kaunas temperature yesterday

Maximum temperature yesterday: 55 °F (at 1:50 PM)
Minimum temperature yesterday: 36 °F (at 7:50 AM)
Average temperature yesterday: 44 °F

Past Weeks' High & Low Weather Summary

 TemperatureHumidityPressure
High70 °F (Sep 18, 2:20 PM)94% (Sep 27, 5:50 AM)30.51 "Hg (Sep 27, 5:50 AM)
Low28 °F (Oct 2, 6:50 AM)30% (Sep 18, 1:50 PM)29.53 "Hg (Sep 22, 11:50 AM)
Average51 °F71%30.05 "Hg
* Reported Sep 17 4:20 PM — Oct 2 4:50 PM, Kaunas, Weather by CustomWeather, © 2014

Note: Actual official high and low records may vary slightly from our data, if they occured in-between our weather recording intervals... More about our weather records

Advertising

Kaunas weather history for previous 24 hours

 ConditionsComfort  
Time TempWeatherWind HumidityBarometerVisibility
4:50 PM
Oct 2
57 °FPassing clouds.8 mph41%30.48 "HgN/A
4:20 PM57 °FPassing clouds.8 mph39%30.48 "HgN/A
3:50 PM57 °FPassing clouds.8 mph41%30.48 "HgN/A
3:20 PM57 °FPassing clouds.7 mph44%30.48 "HgN/A
2:50 PM57 °FPassing clouds.8 mph44%30.48 "HgN/A
2:20 PM55 °FPassing clouds.8 mph44%30.48 "HgN/A
1:50 PM55 °FPassing clouds.7 mph44%30.48 "HgN/A
1:20 PM55 °FPassing clouds.10 mph47%30.51 "HgN/A
12:50 PM54 °FPassing clouds.7 mph54%30.51 "HgN/A
12:20 PM52 °FPassing clouds.7 mph58%30.51 "HgN/A
11:50 AM52 °FPassing clouds.7 mph58%30.51 "HgN/A
11:20 AM48 °FSunny.8 mph66%30.51 "Hg10 mi
10:50 AM48 °FPassing clouds.6 mph66%30.51 "HgN/A
10:20 AM46 °FPassing clouds.6 mph71%30.51 "HgN/A
9:50 AM43 °FPassing clouds.3 mph76%30.51 "HgN/A
9:20 AM41 °FSunny.1 mph81%30.51 "Hg10 mi
8:50 AM34 °FSunny.3 mph87%30.51 "Hg10 mi
8:20 AM32 °FClear.3 mph87%30.51 "Hg10 mi
7:50 AM32 °FFog.3 mph87%30.51 "HgN/A
7:20 AM28 °FFog.2 mph93%30.48 "HgN/A
6:50 AM28 °FFog.5 mph93%30.48 "HgN/A
6:20 AM32 °FClear.2 mph87%30.48 "Hg10 mi
5:50 AM32 °FClear.3 mph87%30.48 "Hg10 mi
5:20 AM30 °FClear.3 mph93%30.48 "Hg10 mi
4:50 AM32 °FClear.3 mph87%30.48 "Hg10 mi
4:20 AM34 °FClear.3 mph87%30.48 "Hg10 mi
3:50 AM34 °FClear.5 mph87%30.48 "Hg10 mi
3:20 AM34 °FChilly.3 mph87%30.48 "HgN/A
2:50 AM34 °FChilly.6 mph93%30.48 "HgN/A
2:20 AM34 °FChilly.6 mph93%30.48 "HgN/A
1:50 AM34 °FChilly.5 mph93%30.48 "HgN/A
1:20 AM34 °FChilly.3 mph93%30.48 "HgN/A
12:50 AM36 °FChilly.3 mph93%30.48 "HgN/A
12:20 AM34 °FChilly.5 mph87%30.48 "HgN/A
11:50 PM
Oct 1
37 °FClear.3 mph87%30.48 "Hg10 mi
11:20 PM37 °FClear.6 mph87%30.48 "Hg10 mi
10:50 PM37 °FClear.6 mph87%30.48 "Hg10 mi
10:20 PM37 °FClear.6 mph87%30.45 "Hg10 mi
9:50 PM37 °FClear.6 mph87%30.45 "Hg10 mi
9:20 PM39 °FClear.2 mph81%30.45 "Hg10 mi
8:50 PM41 °FClear.2 mph81%30.45 "Hg10 mi
8:20 PM43 °FClear.2 mph76%30.45 "Hg10 mi
7:50 PM43 °FSunny.2 mph76%30.45 "Hg10 mi
7:20 PM43 °FSunny.3 mph76%30.45 "Hg10 mi
6:50 PM50 °FSunny.2 mph54%30.42 "Hg10 mi
6:20 PM52 °FSunny.6 mph50%30.42 "Hg10 mi
5:50 PM54 °FSunny.6 mph44%30.42 "Hg10 mi
5:20 PM55 °FPassing clouds.7 mph41%30.42 "HgN/A
Weather by CustomWeather, © 2014

See weather overviewHow to use our weather pages